星链-30252 (STARLINK-30252 )

导读 | 星芒AI

STARLINK-30252 是 SpaceX Starlink 项目中的一颗低轨通信卫星,属于第三代星链卫星(v1.5 或 v2 版本)。它于 2023 年发射,运行在约 550 公里的轨道高度,旨在为全球用户提供高速互联网服务。该卫星采用先进推进系统和激光通信技术,提升网络稳定性和数据传输效率。作为 Starlink 卫星群的一部分,它支持偏远地区的宽带接入,并增强整体星座的覆盖能力与冗余性。

基本信息
目录编号:
57607
目录名称:
STARLINK-30252
国际标识:
2023-119F
轨道中心:
EARTH
卫星名称:
星链-30252
卫星全名:
星链-30252 (STARLINK-30252 )
卫星状态:
在轨 (已飞行860 天)
发射日期:
2023-08-11 UTC
国别 :
美国 (US)
星等 :
--
轨道信息
数据来源 国际轨道数据 AOE轨道数据
星历时间 2025-12-18T03:06:01+0800
1天前
查看轨道信息
2025-12-16T12:00:00+0800
2天前
查看轨道信息
半长轴 6937.209km 6937.233km
偏心率 0.0001573 0.0001541
轨道倾角 43.002° 43.002°
近地点辐角 260.751° 255.912°
升交点赤经 154.143° 162.996°
平近点角 99.316° 281.596°
近地点 557.982km 558.028km
远地点 560.166km 560.168km
周期 95.838分钟 95.838分钟
每日圈数 15.025387 15.025309
详细信息
固有亮度:
5
最大亮度:
0.3
卫星平台:
Starlink v2.0 mini
覆盖范围:
全球
运营商:
太空探索技术公司
运营商所在国:
美国
制造商(研发单位):
太空探索技术公司
制造商所在国:
美国
使用方式:
暂无
卫星简介
星链(Starlink)计划是由太空探索技术公司(SpaceX)提出的一个巨型低轨卫星互联网星座项目,计划在2019年至2024年间在太空搭建由约1.2万颗卫星组成的“星链”网络,其中1584颗将部署在地球上空550千米处的近地轨道,并从2020年开始工作。该卫星仍在工作。
2D轨道图
3D轨道图
轨道高度分析图
轨道倾角分析图
轨道综合分析图
查看轨道综合分析图